Location: Recife
(8.0585°S, 34.8848°W)
Time: 00:26:37
(UTC-03:00)

N. Korean satellite - Pass Details

Date: 11 December 2022
Orbit: 407 x 441 km, 97.3° (Epoch: 05 February)

Event Time Altitude Azimuth Distance (km) Brightness Sun altitude
Rises 03:52:38 0° 23° (NNE) 2,387 10.0 -14.9°
Reaches altitude 10° 03:54:43 10° 31° (NNE) 1,515 9.1 -14.4°
Maximum altitude 03:57:46 39° 101° (ESE) 643 7.8 -13.8°
Drops below altitude 10° 04:00:48 10° 172° (S) 1,500 9.5 -13.1°
Sets 04:02:51 0° 180° (S) 2,360 10.4 -12.6°
